Back to catalog

EGYPTSAT 1

AliveScienceSSO
NORAD 31117·PAYLOAD·🇪🇬 Egypt

Launched Apr 17, 2007 from Baikonur Cosmodrome

Loading…

Next Passes (next 24 hours)

TLE

FreshSource: Space-Track

Epoch: Sep 13, 2026, 20:02 UTC

1 31117U 07012A   26256.83485385  .00000783  00000-0  11084-3 0  9993
2 31117  98.0693 213.3643 0004970 160.7896 199.3504 14.79902200 42820

Track EGYPTSAT 1 in real time with AllMySat

Download on the App Store